Tracking 28792 objects as of 25-Apr-2024
HD Live streaming from Space Station
objects crossing your sky now

ZHEDA PIXING 1C

Track ZHEDA PIXING 1C now!
10-day predictions
ZHEDA PIXING 1C is classified as:


NORAD ID: 37167
Int'l Code: 2010-047C
Perigee: 606.4 km
Apogee: 635.7 km
Inclination: 97.9 °
Period: 97.0 minutes
Semi major axis: 6992 km
RCS: 0.149 m2 (medium)
Launch date: September 22, 2010
Source: People's Republic of China (PRC)
Launch site: Jiuquan Satellite Launch Center, China (JSC)
Your satellite tracking list
Your tracking list is empty




NASA's NSSDC Master Catalog

Two Line Element Set (TLE):
1 37167U 10047C   24116.16746524  .00005588  00000-0  66023-3 0  9991
2 37167  97.8841  86.1084 0020953 345.0481  15.0111 14.84909123734222
Source of the keplerian elements: AFSPC